• In Schweiz
  • Länderverzeichnis
  • Für 7 Tage
  • Wassertemperatur
  • Satellitenkarten
  • Wetterkarte
  • Widgets
  • user-avatar
    Anmelden

    Stündliche Wetter Balcho

    Heute, 20 Februar, Dienstag

    Zeit Temperatur Niederschläge Wind Luftdruck Luftfeuchtigkeit
    00:00 +30°C° 0 mm 3 m/S 736 mmHg 62%
    01:00 +29°C° 0 mm 2 m/S 736 mmHg 63%
    02:00 +29°C° 0 mm 2 m/S 736 mmHg 65%
    03:00 +28°C° 0 mm 2 m/S 736 mmHg 67%
    04:00 +28°C° 0 mm 2 m/S 736 mmHg 68%
    05:00 +28°C° 0 mm 2 m/S 736 mmHg 69%
    06:00 +27°C° 0 mm 2 m/S 736 mmHg 70%
    07:00 +28°C° 0 mm 2 m/S 736 mmHg 67%
    08:00 +29°C° 0 mm 2 m/S 737 mmHg 64%
    09:00 +29°C° 0 mm 2 m/S 737 mmHg 60%
    10:00 +31°C° 0 mm 2 m/S 737 mmHg 54%
    11:00 +32°C° 0 mm 2 m/S 737 mmHg 49%
    12:00 +35°C° 0 mm 2 m/S 736 mmHg 43%
    13:00 +35°C° 0 mm 2 m/S 735 mmHg 40%
    14:00 +36°C° 0 mm 2 m/S 735 mmHg 37%
    15:00 +37°C° 0 mm 3 m/S 734 mmHg 34%
    16:00 +37°C° 0 mm 4 m/S 734 mmHg 36%
    17:00 +36°C° 0 mm 4 m/S 734 mmHg 38%
    18:00 +36°C° 0 mm 5 m/S 733 mmHg 40%
    19:00 +35°C° 0 mm 5 m/S 734 mmHg 45%
    20:00 +33°C° 0 mm 5 m/S 734 mmHg 50%
    21:00 +32°C° 0 mm 5 m/S 734 mmHg 55%
    22:00 +30°C° 0 mm 4 m/S 734 mmHg 56%
    23:00 +30°C° 0 mm 4 m/S 734 mmHg 57%

    Morgen, 21 Februar, Mittwoch

    Zeit Temperatur Niederschläge Wind Luftdruck Luftfeuchtigkeit
    00:00 +29°C° 0 mm 3 m/S 734 mmHg 58%
    01:00 +29°C° 0 mm 3 m/S 734 mmHg 59%
    02:00 +29°C° 0 mm 3 m/S 734 mmHg 61%
    03:00 +28°C° 0 mm 3 m/S 734 mmHg 62%
    04:00 +28°C° 0 mm 2 m/S 734 mmHg 63%
    05:00 +28°C° 0 mm 2 m/S 735 mmHg 65%
    06:00 +27°C° 0 mm 2 m/S 735 mmHg 66%
    07:00 +28°C° 0 mm 2 m/S 735 mmHg 63%
    08:00 +29°C° 0 mm 2 m/S 736 mmHg 59%
    09:00 +30°C° 0 mm 3 m/S 736 mmHg 55%
    10:00 +31°C° 0 mm 3 m/S 736 mmHg 49%
    11:00 +34°C° 0 mm 3 m/S 736 mmHg 42%
    12:00 +36°C° 0 mm 3 m/S 736 mmHg 36%
    13:00 +36°C° 0 mm 3 m/S 735 mmHg 33%
    14:00 +37°C° 0 mm 3 m/S 734 mmHg 31%
    15:00 +38°C° 0 mm 4 m/S 734 mmHg 28%
    16:00 +37°C° 0 mm 4 m/S 733 mmHg 30%
    17:00 +37°C° 0 mm 5 m/S 733 mmHg 31%
    18:00 +36°C° 0 mm 5 m/S 733 mmHg 32%
    19:00 +35°C° 0 mm 5 m/S 734 mmHg 36%
    20:00 +33°C° 0 mm 6 m/S 734 mmHg 40%
    21:00 +32°C° 0 mm 6 m/S 734 mmHg 44%
    22:00 +30°C° 0 mm 5 m/S 735 mmHg 45%
    23:00 +30°C° 0 mm 5 m/S 735 mmHg 46%

    übermorgen, 22 Februar, Donnerstag

    Zeit Temperatur Niederschläge Wind Luftdruck Luftfeuchtigkeit
    00:00 +29°C° 0 mm 4 m/S 735 mmHg 48%
    01:00 +28°C° 0 mm 4 m/S 734 mmHg 50%
    02:00 +28°C° 0 mm 3 m/S 734 mmHg 53%
    03:00 +27°C° 0 mm 3 m/S 734 mmHg 56%
    04:00 +27°C° 0 mm 3 m/S 734 mmHg 59%
    05:00 +26°C° 0 mm 2 m/S 734 mmHg 61%
    06:00 +26°C° 0 mm 2 m/S 734 mmHg 64%
    07:00 +27°C° 0 mm 2 m/S 735 mmHg 59%
    08:00 +28°C° 0 mm 3 m/S 736 mmHg 53%
    09:00 +29°C° 0 mm 3 m/S 736 mmHg 48%
    10:00 +31°C° 0 mm 3 m/S 736 mmHg 41%
    11:00 +33°C° 0 mm 3 m/S 736 mmHg 33%
    12:00 +35°C° 0 mm 3 m/S 736 mmHg 26%
    13:00 +36°C° 0 mm 3 m/S 735 mmHg 23%
    14:00 +37°C° 0 mm 3 m/S 734 mmHg 21%
    15:00 +38°C° 0 mm 3 m/S 733 mmHg 18%
    16:00 +37°C° 0 mm 3 m/S 733 mmHg 19%
    17:00 +37°C° 0 mm 4 m/S 733 mmHg 19%
    18:00 +36°C° 0 mm 4 m/S 733 mmHg 20%
    19:00 +35°C° 0 mm 4 m/S 734 mmHg 24%
    20:00 +34°C° 0 mm 4 m/S 734 mmHg 27%
    21:00 +32°C° 0 mm 4 m/S 735 mmHg 31%
    22:00 +32°C° 0 mm 4 m/S 735 mmHg 33%
    23:00 +30°C° 0 mm 3 m/S 735 mmHg 36%

    23 Februar, Freitag

    Zeit Temperatur Niederschläge Wind Luftdruck Luftfeuchtigkeit
    00:00 +29°C° 0 mm 3 m/S 735 mmHg 38%
    01:00 +29°C° 0 mm 3 m/S 734 mmHg 39%
    02:00 +28°C° 0 mm 2 m/S 734 mmHg 41%
    03:00 +27°C° 0 mm 2 m/S 733 mmHg 43%
    04:00 +27°C° 0 mm 2 m/S 734 mmHg 45%
    05:00 +26°C° 0 mm 2 m/S 734 mmHg 46%
    06:00 +26°C° 0 mm 2 m/S 734 mmHg 48%
    07:00 +27°C° 0 mm 2 m/S 735 mmHg 44%
    08:00 +28°C° 0 mm 2 m/S 735 mmHg 39%
    09:00 +30°C° 0 mm 2 m/S 736 mmHg 35%
    10:00 +32°C° 0 mm 2 m/S 735 mmHg 29%
    11:00 +34°C° 0 mm 2 m/S 735 mmHg 24%
    12:00 +36°C° 0 mm 2 m/S 735 mmHg 18%
    13:00 +37°C° 0 mm 2 m/S 734 mmHg 17%
    14:00 +38°C° 0 mm 2 m/S 733 mmHg 16%
    15:00 +39°C° 0 mm 2 m/S 732 mmHg 15%
    16:00 +38°C° 0 mm 3 m/S 732 mmHg 17%
    17:00 +38°C° 0 mm 3 m/S 732 mmHg 19%
    18:00 +37°C° 0 mm 4 m/S 733 mmHg 21%
    19:00 +36°C° 0 mm 4 m/S 733 mmHg 28%
    20:00 +34°C° 0 mm 4 m/S 734 mmHg 34%
    21:00 +33°C° 0 mm 4 m/S 734 mmHg 40%
    22:00 +32°C° 0 mm 4 m/S 734 mmHg 41%
    23:00 +30°C° 0 mm 4 m/S 734 mmHg 43%

    24 Februar, Samstag

    Zeit Temperatur Niederschläge Wind Luftdruck Luftfeuchtigkeit
    00:00 +30°C° 0 mm 3 m/S 734 mmHg 45%
    01:00 +29°C° 0 mm 3 m/S 733 mmHg 47%
    02:00 +28°C° 0 mm 3 m/S 733 mmHg 48%
    03:00 +28°C° 0 mm 3 m/S 732 mmHg 50%
    04:00 +27°C° 0 mm 3 m/S 733 mmHg 52%
    05:00 +27°C° 0 mm 3 m/S 733 mmHg 54%
    06:00 +26°C° 0 mm 3 m/S 733 mmHg 57%
    07:00 +28°C° 0 mm 3 m/S 734 mmHg 52%
    08:00 +29°C° 0 mm 3 m/S 735 mmHg 47%
    09:00 +30°C° 0 mm 3 m/S 735 mmHg 42%
    10:00 +33°C° 0 mm 3 m/S 735 mmHg 36%
    11:00 +35°C° 0 mm 3 m/S 735 mmHg 30%
    12:00 +37°C° 0 mm 3 m/S 734 mmHg 23%
    13:00 +38°C° 0 mm 3 m/S 733 mmHg 24%
    14:00 +38°C° 0 mm 3 m/S 733 mmHg 24%
    15:00 +39°C° 0 mm 3 m/S 732 mmHg 24%
    16:00 +38°C° 0 mm 4 m/S 732 mmHg 26%
    17:00 +38°C° 0 mm 4 m/S 732 mmHg 29%
    18:00 +37°C° 0 mm 4 m/S 732 mmHg 32%
    19:00 +36°C° 0 mm 4 m/S 733 mmHg 37%
    20:00 +35°C° 0 mm 5 m/S 733 mmHg 41%
    21:00 +33°C° 0 mm 5 m/S 734 mmHg 46%
    22:00 +32°C° 0 mm 4 m/S 733 mmHg 48%
    23:00 +32°C° 0 mm 4 m/S 733 mmHg 49%

    25 Februar, Sonntag

    Zeit Temperatur Niederschläge Wind Luftdruck Luftfeuchtigkeit
    00:00 +30°C° 0 mm 4 m/S 733 mmHg 50%
    01:00 +30°C° 0 mm 4 m/S 733 mmHg 52%
    02:00 +29°C° 0 mm 3 m/S 732 mmHg 54%
    03:00 +29°C° 0 mm 3 m/S 732 mmHg 56%
    04:00 +28°C° 0 mm 3 m/S 733 mmHg 59%
    05:00 +28°C° 0 mm 3 m/S 733 mmHg 61%
    06:00 +28°C° 0 mm 3 m/S 733 mmHg 63%
    07:00 +29°C° 0 mm 3 m/S 734 mmHg 59%
    08:00 +30°C° 0 mm 3 m/S 734 mmHg 55%
    09:00 +32°C° 0 mm 4 m/S 735 mmHg 50%
    10:00 +34°C° 0 mm 4 m/S 735 mmHg 46%
    11:00 +35°C° 0 mm 4 m/S 734 mmHg 41%
    12:00 +37°C° 0 mm 4 m/S 734 mmHg 36%
    13:00 +37°C° 0 mm 4 m/S 733 mmHg 34%
    14:00 +38°C° 0 mm 3 m/S 732 mmHg 32%
    15:00 +39°C° 0 mm 3 m/S 732 mmHg 30%
    16:00 +38°C° 0 mm 3 m/S 732 mmHg 33%
    17:00 +38°C° 0 mm 4 m/S 732 mmHg 35%
    18:00 +37°C° 0 mm 5 m/S 732 mmHg 38%
    19:00 +36°C° 0 mm 4 m/S 733 mmHg 43%
    20:00 +34°C° 0 mm 4 m/S 733 mmHg 49%
    21:00 +33°C° 0 mm 4 m/S 733 mmHg 55%
    22:00 +32°C° 0 mm 4 m/S 733 mmHg 57%
    23:00 +32°C° 0 mm 4 m/S 733 mmHg 60%
    Mehr zeigen